| time (UTC) | temp F | wind direction | speed knots | gust knots | rain 1hr in | rain 24hr in | rain mn in | humidity % | barometer mb |
| 20260507103433 | 57 | 0.0 | 0.0 | 0.00 | 0.00 | 0.00 | 67 | 1020.1 | |
| 20260507102428 | 58 | 113 | 0.9 | 0.9 | 0.00 | 0.00 | 0.00 | 66 | 1020.4 |
| 20260507101440 | 57 | 0.0 | 0.0 | 0.00 | 0.00 | 0.00 | 68 | 1020.3 | |
| 20260507100412 | 59 | 333 | 0.0 | 0.9 | 0.00 | 0.00 | 0.00 | 63 | 1020.2 |
| 20260507095405 | 59 | 142 | 0.0 | 0.9 | 0.00 | 0.00 | 0.00 | 66 | 1020.2 |
| 20260507094356 | 58 | 117 | 0.9 | 0.9 | 0.00 | 0.00 | 0.00 | 66 | 1020.0 |
| 20260507093340 | 59 | 0.0 | 0.0 | 0.00 | 0.00 | 0.00 | 66 | 1020.1 | |
| 20260507092338 | 58 | 0.0 | 0.0 | 0.00 | 0.00 | 0.00 | 68 | 1020.2 | |
| 20260507091336 | 56 | 0.0 | 0.0 | 0.00 | 0.00 | 0.00 | 70 | 1020.3 | |
| 20260507090335 | 56 | 0.0 | 0.0 | 0.00 | 0.00 | 0.00 | 70 | 1020.3 | |
| 20260507085333 | 56 | 357 | 0.9 | 0.9 | 0.00 | 0.00 | 0.00 | 71 | 1020.1 |
| 20260507084324 | 57 | 182 | 0.9 | 0.9 | 0.00 | 0.00 | 0.00 | 69 | 1020.1 |
| 20260507083336 | 57 | 0.0 | 0.0 | 0.00 | 0.00 | 0.00 | 71 | 1019.9 | |
| 20260507082308 | 55 | 152 | 0.0 | 0.9 | 0.00 | 0.00 | 0.00 | 71 | 1020.0 |
| 20260507081300 | 53 | 0.0 | 0.0 | 0.00 | 0.00 | 0.00 | 77 | 1020.1 | |
| 20260507080252 | 52 | 146 | 1.7 | 2.6 | 0.00 | 0.00 | 0.00 | 78 | 1020.0 |
| 20260507075241 | 52 | 182 | 1.7 | 1.7 | 0.00 | 0.00 | 0.00 | 77 | 1020.0 |
| 20260507074233 | 52 | 156 | 0.9 | 1.7 | 0.00 | 0.00 | 0.00 | 79 | 1020.0 |
| 20260507073223 | 51 | 350 | 0.0 | 0.9 | 0.00 | 0.00 | 0.00 | 80 | 1020.0 |
| 20260507072221 | 51 | 133 | 0.9 | 0.9 | 0.00 | 0.00 | 0.00 | 81 | 1019.9 |
| 20260507071213 | 50 | 0.0 | 0.0 | 0.00 | 0.00 | 0.00 | 83 | 1019.9 | |
| 20260507070205 | 50 | 119 | 0.0 | 0.9 | 0.00 | 0.00 | 0.00 | 83 | 1019.8 |
| 20260507065156 | 49 | 139 | 0.0 | 0.9 | 0.00 | 0.00 | 0.00 | 84 | 1019.6 |
| 20260507064140 | 49 | 0.0 | 0.0 | 0.00 | 0.00 | 0.00 | 85 | 1019.7 | |
| 20260507063158 | 48 | 0.0 | 0.0 | 0.00 | 0.00 | 0.00 | 85 | 1019.6 | |
| 20260507062136 | 48 | 0.0 | 0.0 | 0.00 | 0.00 | 0.00 | 87 | 1019.7 | |
| 20260507061154 | 47 | 0.0 | 0.0 | 0.00 | 0.00 | 0.00 | 88 | 1019.9 | |
| 20260507060132 | 47 | 0.0 | 0.0 | 0.00 | 0.00 | 0.00 | 91 | 1019.6 | |
| 20260507055121 | 46 | 0.0 | 0.0 | 0.00 | 0.00 | 0.00 | 92 | 1019.6 | |
| 20260507054116 | 45 | 8 | 0.0 | 0.9 | 0.00 | 0.00 | 0.00 | 94 | 1019.5 |
| 20260507053108 | 44 | 0.0 | 0.0 | 0.00 | 0.00 | 0.00 | 94 | 1019.3 | |
| 20260507052120 | 44 | 0.0 | 0.0 | 0.00 | 0.00 | 0.00 | 94 | 1019.4 | |
| 20260507051053 | 44 | 0.0 | 0.0 | 0.00 | 0.00 | 0.00 | 94 | 1019.3 | |
| 20260507050045 | 43 | 0.0 | 0.0 | 0.00 | 0.00 | 0.00 | 94 | 1019.3 | |
| 20260507045043 | 43 | 0.0 | 0.0 | 0.00 | 0.00 | 0.00 | 94 | 1019.2 | |
| 20260507044040 | 43 | 0.0 | 0.0 | 0.00 | 0.00 | 0.00 | 94 | 1019.3 | |
| 20260507043038 | 43 | 0.0 | 0.0 | 0.00 | 0.00 | 0.00 | 93 | 1019.2 | |
| 20260507042116 | 42 | 0.0 | 0.0 | 0.00 | 0.00 | 0.00 | 93 | 1019.3 | |
| 20260507041035 | 42 | 0.0 | 0.0 | 0.00 | 0.00 | 0.00 | 93 | 1019.2 | |
| 20260507040033 | 43 | 0.0 | 0.0 | 0.00 | 0.00 | 0.00 | 93 | 1018.9 | |
| 20260507035040 | 43 | 0.0 | 0.0 | 0.00 | 0.00 | 0.00 | 92 | 1018.9 | |
| 20260507034013 | 44 | 0.0 | 0.0 | 0.00 | 0.00 | 0.00 | 92 | 1018.9 | |
| 20260507032501 | 44 | 0.0 | 0.0 | 0.00 | 0.00 | 0.00 | 92 | 1019.1 | |
| 20260507031532 | 44 | 0.0 | 0.0 | 0.00 | 0.00 | 0.00 | 92 | 1019.1 | |
| 20260507030444 | 44 | 0.0 | 0.0 | 0.00 | 0.00 | 0.00 | 92 | 1019.1 | |
| 20260507025437 | 44 | 0.0 | 0.0 | 0.00 | 0.00 | 0.00 | 92 | 1019.0 | |
| 20260507024455 | 44 | 0.0 | 0.0 | 0.00 | 0.00 | 0.00 | 92 | 1019.1 | |
| 20260507023454 | 44 | 0.0 | 0.0 | 0.00 | 0.00 | 0.00 | 92 | 1018.9 | |
| 20260507022428 | 44 | 0.0 | 0.0 | 0.00 | 0.00 | 0.00 | 92 | 1019.0 | |
| 20260507021420 | 44 | 0.0 | 0.0 | 0.00 | 0.00 | 0.00 | 92 | 1019.1 | |
| 20260507020412 | 45 | 0.0 | 0.0 | 0.00 | 0.00 | 0.00 | 92 | 1019.0 | |
| 20260507015405 | 45 | 0.0 | 0.0 | 0.00 | 0.00 | 0.00 | 92 | 1018.7 | |
| 20260507014356 | 44 | 0.0 | 0.0 | 0.00 | 0.00 | 0.00 | 92 | 1018.6 | |
| 20260507013348 | 44 | 0.0 | 0.0 | 0.00 | 0.00 | 0.00 | 92 | 1018.8 | |
| 20260507012338 | 45 | 0.0 | 0.0 | 0.00 | 0.00 | 0.00 | 91 | 1018.8 | |
| 20260507011332 | 45 | 0.0 | 0.0 | 0.00 | 0.00 | 0.00 | 91 | 1018.6 | |
| 20260507010325 | 45 | 0.0 | 0.0 | 0.00 | 0.00 | 0.00 | 91 | 1018.9 | |
| 20260507005317 | 45 | 0.0 | 0.0 | 0.00 | 0.00 | 0.00 | 91 | 1018.9 | |
| 20260507004328 | 45 | 0.0 | 0.0 | 0.00 | 0.00 | 0.00 | 90 | 1018.7 | |
| 20260507003300 | 45 | 0.0 | 0.0 | 0.00 | 0.00 | 0.00 | 90 | 1018.7 | |
| 20260507002332 | 46 | 0.0 | 0.0 | 0.00 | 0.00 | 0.00 | 89 | 1018.7 | |
| 20260507001236 | 46 | 0.0 | 0.0 | 0.00 | 0.00 | 0.00 | 89 | 1018.6 | |
| 20260507000234 | 46 | 0.0 | 0.0 | 0.00 | 0.00 | 0.00 | 88 | 1018.9 | |
| 20260506235228 | 47 | 0.0 | 0.0 | 0.00 | 0.00 | 0.00 | 87 | 1018.9 | |
| 20260506234220 | 48 | 0.0 | 0.0 | 0.00 | 0.00 | 0.00 | 87 | 1018.7 | |
| 20260506233212 | 48 | 0.0 | 0.0 | 0.00 | 0.00 | 0.00 | 86 | 1018.7 | |
| 20260506232224 | 48 | 0.0 | 0.0 | 0.00 | 0.00 | 0.00 | 86 | 1018.8 | |
| 20260506231157 | 48 | 0.0 | 0.0 | 0.00 | 0.00 | 0.00 | 86 | 1018.6 | |
| 20260506230142 | 48 | 0.0 | 0.0 | 0.00 | 0.00 | 0.00 | 87 | 1018.7 | |
| 20260506225139 | 48 | 0.0 | 0.0 | 0.00 | 0.00 | 0.00 | 87 | 1018.5 | |
| 20260506224139 | 48 | 0.0 | 0.0 | 0.00 | 0.00 | 0.00 | 87 | 1018.6 | |
| 20260506223135 | 48 | 130 | 0.0 | 0.9 | 0.00 | 0.00 | 0.00 | 87 | 1018.5 |
| 20260506222132 | 48 | 0.0 | 0.0 | 0.00 | 0.00 | 0.00 | 86 | 1018.7 | |
| 20260506221121 | 49 | 0.0 | 0.0 | 0.00 | 0.00 | 0.00 | 86 | 1018.4 | |
| 20260506220116 | 49 | 0.0 | 0.0 | 0.00 | 0.00 | 0.00 | 86 | 1018.5 | |
| 20260506215108 | 49 | 323 | 0.9 | 0.9 | 0.00 | 0.00 | 0.00 | 86 | 1018.5 |
| 20260506214100 | 49 | 0.0 | 0.0 | 0.00 | 0.00 | 0.00 | 86 | 1018.5 | |
| 20260506213041 | 49 | 0.0 | 0.0 | 0.00 | 0.00 | 0.00 | 86 | 1018.4 | |
| 20260506212039 | 49 | 0.0 | 0.0 | 0.00 | 0.00 | 0.00 | 86 | 1018.5 | |
| 20260506211037 | 49 | 348 | 0.9 | 0.9 | 0.00 | 0.00 | 0.00 | 86 | 1018.5 |
| 20260506210035 | 49 | 16 | 0.0 | 0.9 | 0.00 | 0.00 | 0.00 | 86 | 1018.3 |
| 20260506205030 | 49 | 0.0 | 0.0 | 0.00 | 0.00 | 0.00 | 86 | 1018.2 | |
| 20260506204028 | 49 | 4 | 0.0 | 0.9 | 0.00 | 0.00 | 0.00 | 85 | 1018.3 |
| 20260506203020 | 50 | 0.0 | 0.0 | 0.00 | 0.00 | 0.00 | 84 | 1018.1 | |
| 20260506202152 | 50 | 324 | 0.9 | 1.7 | 0.00 | 0.00 | 0.00 | 83 | 1018.0 |
| 20260506200501 | 50 | 17 | 1.7 | 2.6 | 0.00 | 0.00 | 0.00 | 81 | 1017.8 |
| 20260506195453 | 50 | 0.0 | 0.0 | 0.00 | 0.00 | 0.00 | 80 | 1017.9 | |
| 20260506194459 | 51 | 3 | 0.0 | 0.9 | 0.00 | 0.00 | 0.00 | 79 | 1017.7 |
| 20260506193437 | 51 | 346 | 1.7 | 1.7 | 0.00 | 0.00 | 0.00 | 77 | 1017.5 |
| 20260506192434 | 51 | 358 | 1.7 | 2.6 | 0.00 | 0.00 | 0.00 | 75 | 1017.3 |
| 20260506191429 | 52 | 332 | 0.0 | 0.9 | 0.00 | 0.00 | 0.00 | 73 | 1017.5 |
| 20260506190428 | 52 | 8 | 0.0 | 0.9 | 0.00 | 0.00 | 0.00 | 73 | 1017.5 |
| 20260506185457 | 52 | 42 | 0.0 | 0.9 | 0.00 | 0.00 | 0.00 | 73 | 1017.1 |
| 20260506184413 | 53 | 337 | 0.9 | 1.7 | 0.00 | 0.00 | 0.00 | 70 | 1017.2 |
| 20260506183425 | 53 | 0.0 | 0.0 | 0.00 | 0.00 | 0.00 | 68 | 1016.8 | |
| 20260506182357 | 53 | 359 | 1.7 | 2.6 | 0.00 | 0.00 | 0.00 | 68 | 1016.8 |
| 20260506181341 | 54 | 18 | 0.0 | 0.9 | 0.00 | 0.00 | 0.00 | 68 | 1016.9 |
| 20260506180339 | 54 | 23 | 1.7 | 2.6 | 0.00 | 0.00 | 0.00 | 66 | 1016.6 |
| 20260506175337 | 54 | 70 | 0.0 | 0.9 | 0.00 | 0.00 | 0.00 | 67 | 1016.5 |
| 20260506174335 | 54 | 48 | 0.9 | 1.7 | 0.00 | 0.00 | 0.00 | 67 | 1016.5 |
| 20260506173332 | 54 | 9 | 0.9 | 0.9 | 0.00 | 0.00 | 0.00 | 67 | 1016.5 |
| 20260506172322 | 54 | 34 | 1.7 | 1.7 | 0.00 | 0.00 | 0.00 | 66 | 1016.6 |
| 20260506171317 | 54 | 0.0 | 0.0 | 0.00 | 0.00 | 0.00 | 66 | 1016.4 | |
| 20260506170329 | 54 | 339 | 1.7 | 1.7 | 0.00 | 0.00 | 0.00 | 65 | 1016.4 |
| 20260506165300 | 55 | 339 | 0.9 | 0.9 | 0.00 | 0.00 | 0.00 | 66 | 1016.4 |
| 20260506164312 | 54 | 2 | 2.6 | 2.6 | 0.00 | 0.00 | 0.00 | 66 | 1016.5 |
| 20260506163244 | 54 | 2 | 3.5 | 3.5 | 0.00 | 0.00 | 0.00 | 65 | 1016.6 |
| 20260506162234 | 54 | 41 | 1.7 | 2.6 | 0.00 | 0.00 | 0.00 | 66 | 1016.4 |
| 20260506161221 | 55 | 84 | 1.7 | 2.6 | 0.00 | 0.00 | 0.00 | 66 | 1016.5 |
| 20260506160220 | 55 | 321 | 0.9 | 0.9 | 0.00 | 0.00 | 0.00 | 66 | 1016.5 |
| 20260506155212 | 55 | 335 | 1.7 | 3.5 | 0.00 | 0.00 | 0.00 | 64 | 1016.4 |
| 20260506154205 | 55 | 0.0 | 0.0 | 0.00 | 0.00 | 0.00 | 65 | 1016.6 | |
| 20260506153157 | 54 | 43 | 0.9 | 1.7 | 0.00 | 0.00 | 0.00 | 65 | 1016.5 |
| 20260506152140 | 54 | 330 | 1.7 | 2.6 | 0.00 | 0.00 | 0.00 | 67 | 1016.5 |
| 20260506151139 | 54 | 104 | 1.7 | 1.7 | 0.00 | 0.00 | 0.00 | 68 | 1016.6 |
| 20260506150137 | 54 | 341 | 1.7 | 2.6 | 0.00 | 0.00 | 0.00 | 70 | 1016.5 |
| 20260506145137 | 53 | 0.0 | 0.0 | 0.00 | 0.00 | 0.00 | 69 | 1016.6 | |
| 20260506144133 | 54 | 332 | 1.7 | 1.7 | 0.00 | 0.00 | 0.00 | 69 | 1016.4 |
| 20260506143122 | 53 | 357 | 0.0 | 0.9 | 0.00 | 0.00 | 0.00 | 69 | 1016.5 |
| 20260506142117 | 53 | 20 | 0.9 | 2.6 | 0.00 | 0.00 | 0.00 | 69 | 1016.6 |
| 20260506141105 | 54 | 2 | 3.5 | 3.5 | 0.00 | 0.00 | 0.00 | 68 | 1016.6 |
| 20260506140100 | 54 | 335 | 3.5 | 3.5 | 0.00 | 0.00 | 0.00 | 66 | 1016.5 |
| 20260506135052 | 56 | 337 | 0.9 | 3.5 | 0.00 | 0.00 | 0.00 | 64 | 1016.4 |
| 20260506134041 | 55 | 22 | 2.6 | 3.5 | 0.00 | 0.00 | 0.00 | 67 | 1016.5 |
| 20260506133039 | 54 | 351 | 0.9 | 0.9 | 0.00 | 0.00 | 0.00 | 68 | 1016.7 |
| 20260506132037 | 54 | 21 | 3.5 | 3.5 | 0.00 | 0.00 | 0.00 | 68 | 1016.5 |
| 20260506131035 | 54 | 38 | 1.7 | 2.6 | 0.00 | 0.00 | 0.00 | 67 | 1016.5 |
| 20260506130049 | 55 | 31 | 0.0 | 0.9 | 0.00 | 0.00 | 0.00 | 68 | 1016.3 |
| 20260506125021 | 55 | 33 | 0.9 | 1.7 | 0.00 | 0.00 | 0.00 | 66 | 1016.6 |
| 20260506124009 | 55 | 24 | 2.6 | 3.5 | 0.00 | 0.00 | 0.00 | 67 | 1016.4 |
| 20260506122520 | 55 | 322 | 1.7 | 2.6 | 0.00 | 0.00 | 0.00 | 67 | 1016.4 |
| 20260506121446 | 55 | 4 | 5.2 | 7.0 | 0.00 | 0.00 | 0.00 | 67 | 1016.4 |
| 20260506120444 | 55 | 316 | 0.9 | 2.6 | 0.00 | 0.00 | 0.00 | 67 | 1016.4 |
| 20260506115455 | 54 | 36 | 0.9 | 1.7 | 0.00 | 0.00 | 0.00 | 70 | 1016.6 |
| 20260506114422 | 53 | 24 | 2.6 | 2.6 | 0.00 | 0.00 | 0.00 | 73 | 1016.4 |
| 20260506113420 | 54 | 344 | 2.6 | 2.6 | 0.00 | 0.00 | 0.00 | 73 | 1016.5 |
| 20260506112412 | 53 | 14 | 3.5 | 6.1 | 0.00 | 0.00 | 0.00 | 75 | 1016.4 |
| 20260506111404 | 52 | 51 | 0.9 | 0.9 | 0.00 | 0.00 | 0.00 | 80 | 1016.6 |
| 20260506110404 | 50 | 338 | 0.9 | 1.7 | 0.00 | 0.00 | 0.00 | 84 | 1016.6 |
| 20260506105342 | 50 | 43 | 1.7 | 1.7 | 0.00 | 0.00 | 0.00 | 84 | 1016.5 |
| 20260506104339 | 50 | 319 | 4.3 | 7.0 | 0.00 | 0.00 | 0.00 | 83 | 1016.6 |